Location: Hains Lake
(37.8540°N, 99.8578°W)
Time: 05:19:34
(UTC+00:00)

Transit 2A - Pass Details

Date: 21 April 2021
Orbit: 602 x 957 km, 66.7° (Epoch: 13 May)

Event Time Altitude Azimuth Distance (km) Brightness Sun altitude
Rises 13:53:54 0° 231° (SW) 3,103 8.7 22.3°
Reaches altitude 10° 13:56:33 10° 241° (WSW) 2,130 7.9 22.8°
Maximum altitude 14:00:48 32° 304° (NW) 1,126 6.7 23.6°
Drops below altitude 10° 14:04:50 10° 8° (N) 1,999 8.3 24.4°
Sets 14:07:15 0° 19° (NNE) 2,882 9.2 24.9°
